Voltar ao catálogo

CZ-4 DEB

AtivoSSO
NORAD 26259·DEBRIS·🇨🇳 China

Lançado Oct 14, 1999 de Taiyuan Satellite Launch Center

Loading…

Próximas Passagens (próximas 24 horas)

TLE

AtualizadoSource: Space-Track

Época: Sep 14, 2026, 14:32 UTC

1 26259U 99057EV  26257.60589332  .00004881  00000-0  68196-3 0  9996
2 26259  98.3863 358.4571 0058894  90.5996 325.7632 14.76927668397405

Acompanhe CZ-4 DEB em tempo real com AllMySat

Download on the App Store